START_TIME,STEP,MOV.,AL01,t_acc.,AL02,t_acc.,E37,t_acc.,H21,t_acc.
1979-08-04 23:06:32.930 ,0,0,18.,24.0,0.,24.0,2.,24.0,0.,24.0
1979-08-04 23:06:56.930 ,0,0,0.,24.0,1.,24.0,2.,24.0,0.,24.0
1979-08-04 23:08:08.930 ,0,0,0.,24.0,0.,24.0,2.,24.0,0.,24.0
1979-08-04 23:08:32.930 ,0,0,0.,24.0,0.,24.0,0.,24.0,0.,24.0
1979-08-04 23:08:56.930 ,3,1,0.,24.0,0.,24.0,0.,24.0,0.,24.0
1979-08-04 23:09:20.930 ,3,0,0.,24.0,0.,24.0,1.,24.0,0.,24.0
1979-08-04 23:09:44.930 ,2,1,0.,24.0,0.,24.0,1.,24.0,0.,24.0
1979-08-04 23:10:08.930 ,2,0,0.,24.0,0.,24.0,0.,24.0,0.,24.0
1979-08-04 23:10:32.930 ,1,1,0.,24.0,0.,24.0,0.,24.0,0.,24.0
1979-08-04 23:10:56.930 ,1,0,0.,24.0,0.,24.0,0.,24.0,0.,24.0
1979-08-04 23:11:20.930 ,0,1,0.,24.0,0.,24.0,2.,24.0,0.,24.0
1979-08-04 23:11:44.930 ,0,0,0.,24.0,0.,24.0,0.,24.0,0.,24.0
1979-08-04 23:12:08.930 ,0,1,0.,24.0,0.,24.0,0.,24.0,0.,24.0
1979-08-04 23:12:32.930 ,0,0,0.,24.0,0.,24.0,1.,24.0,0.,24.0
1979-08-04 23:12:56.930 ,1,1,0.,24.0,0.,24.0,2.,24.0,0.,24.0
1979-08-04 23:13:20.930 ,1,0,1.,24.0,0.,24.0,1.,24.0,0.,24.0
1979-08-04 23:13:44.930 ,2,1,0.,24.0,0.,24.0,1.,24.0,0.,24.0
1979-08-04 23:14:08.930 ,2,0,0.,24.0,0.,24.0,0.,24.0,0.,24.0
1979-08-04 23:14:32.930 ,3,1,0.,24.0,0.,24.0,0.,24.0,0.,24.0
1979-08-04 23:14:56.930 ,3,0,0.,24.0,0.,24.0,0.,24.0,0.,24.0
1979-08-04 23:15:20.930 ,4,1,0.,24.0,0.,24.0,0.,24.0,0.,24.0
1979-08-04 23:15:44.930 ,4,0,0.,24.0,0.,24.0,1.,24.0,0.,24.0
1979-08-04 23:16:08.930 ,5,1,0.,24.0,0.,24.0,0.,24.0,0.,24.0
1979-08-04 23:16:32.930 ,5,0,0.,24.0,0.,24.0,1.,24.0,0.,24.0
1979-08-04 23:16:56.930 ,6,1,0.,24.0,0.,24.0,1.,24.0,0.,24.0
1979-08-04 23:17:20.930 ,6,0,0.,24.0,1.,24.0,0.,24.0,0.,24.0
1979-08-04 23:17:44.930 ,7,1,3.,24.0,0.,24.0,1.,24.0,0.,24.0
1979-08-04 23:18:08.930 ,7,0,28.,24.0,0.,24.0,1.,24.0,0.,24.0
1979-08-04 23:18:32.930 ,7,1,33.,24.0,1.,24.0,0.,24.0,0.,24.0
1979-08-04 23:18:56.930 ,7,0,39.,24.0,0.,24.0,1.,24.0,0.,24.0
1979-08-04 23:19:20.930 ,6,1,30.,24.0,0.,24.0,1.,24.0,0.,24.0
1979-08-04 23:19:44.930 ,6,0,0.,24.0,0.,24.0,1.,24.0,0.,24.0
1979-08-04 23:20:08.930 ,5,1,0.,24.0,0.,24.0,1.,24.0,0.,24.0
1979-08-04 23:20:32.930 ,5,0,0.,24.0,0.,24.0,3.,24.0,0.,24.0
1979-08-04 23:20:56.930 ,4,1,0.,24.0,0.,24.0,1.,24.0,0.,24.0
1979-08-04 23:21:20.930 ,4,0,0.,24.0,0.,24.0,0.,24.0,0.,24.0
1979-08-04 23:21:44.930 ,3,1,0.,24.0,0.,24.0,2.,24.0,0.,24.0
1979-08-04 23:22:08.930 ,3,0,0.,24.0,0.,24.0,0.,24.0,0.,24.0
1979-08-04 23:22:32.930 ,2,1,0.,24.0,0.,24.0,1.,24.0,0.,24.0
1979-08-04 23:22:56.930 ,2,0,0.,24.0,0.,24.0,1.,24.0,0.,24.0
1979-08-04 23:23:20.930 ,1,1,0.,24.0,0.,24.0,1.,24.0,0.,24.0
1979-08-04 23:23:44.930 ,1,0,0.,24.0,0.,24.0,0.,24.0,0.,24.0
1979-08-04 23:24:08.930 ,0,1,1.,24.0,1.,24.0,1.,24.0,0.,24.0
1979-08-04 23:24:32.930 ,0,0,0.,24.0,0.,24.0,2.,24.0,0.,24.0
1979-08-04 23:24:56.930 ,0,1,0.,24.0,0.,24.0,2.,24.0,0.,24.0
1979-08-04 23:25:20.930 ,0,0,1.,24.0,0.,24.0,0.,24.0,0.,24.0
1979-08-04 23:25:44.930 ,1,1,1.,24.0,0.,24.0,1.,24.0,0.,24.0
1979-08-04 23:26:08.930 ,1,0,0.,24.0,0.,24.0,2.,24.0,0.,24.0
1979-08-04 23:26:32.930 ,2,1,1.,24.0,0.,24.0,1.,24.0,0.,24.0
1979-08-04 23:26:56.930 ,2,0,0.,24.0,0.,24.0,0.,24.0,0.,24.0
1979-08-04 23:27:20.930 ,3,1,0.,24.0,0.,24.0,0.,24.0,0.,24.0
1979-08-04 23:27:44.930 ,3,0,0.,24.0,0.,24.0,0.,24.0,0.,24.0
1979-08-04 23:28:08.930 ,4,1,0.,24.0,0.,24.0,1.,24.0,0.,24.0
1979-08-04 23:28:32.930 ,4,0,0.,24.0,0.,24.0,2.,24.0,0.,24.0
1979-08-04 23:28:56.930 ,5,1,0.,24.0,0.,24.0,1.,24.0,0.,24.0
1979-08-04 23:29:20.930 ,5,0,0.,24.0,0.,24.0,1.,24.0,0.,24.0
1979-08-04 23:29:44.930 ,6,1,0.,24.0,0.,24.0,0.,24.0,0.,24.0
1979-08-04 23:30:08.930 ,6,0,0.,24.0,0.,24.0,0.,24.0,0.,24.0
1979-08-04 23:30:32.930 ,7,0,7.,24.0,0.,24.0,0.,24.0,0.,24.0
1979-08-04 23:30:56.930 ,7,0,28.,24.0,0.,24.0,0.,24.0,0.,24.0
1979-08-04 23:31:20.930 ,5,1,13.,24.0,0.,24.0,1.,24.0,0.,24.0
1979-08-04 23:31:44.930 ,1,1,0.,24.0,0.,24.0,0.,24.0,0.,24.0
1979-08-04 23:32:08.930 ,2,1,3.,24.0,0.,24.0,0.,24.0,0.,24.0
1979-08-04 23:32:32.930 ,6,1,0.,24.0,0.,24.0,0.,24.0,0.,24.0
1979-08-04 23:32:56.930 ,5,1,15.,24.0,0.,24.0,0.,24.0,0.,24.0
1979-08-04 23:33:20.930 ,1,1,0.,24.0,0.,24.0,0.,24.0,0.,24.0
1979-08-04 23:33:44.930 ,2,1,0.,24.0,1.,24.0,1.,24.0,0.,24.0
1979-08-04 23:34:08.930 ,6,1,0.,24.0,0.,24.0,1.,24.0,0.,24.0
1979-08-04 23:34:32.930 ,5,1,19.,24.0,0.,24.0,0.,24.0,0.,24.0
1979-08-04 23:34:56.930 ,1,1,0.,24.0,0.,24.0,1.,24.0,0.,24.0
1979-08-04 23:35:20.930 ,2,1,0.,24.0,0.,24.0,0.,24.0,0.,24.0
1979-08-04 23:35:44.930 ,6,1,0.,24.0,0.,24.0,0.,24.0,0.,24.0
1979-08-04 23:36:08.930 ,5,1,14.,24.0,0.,24.0,1.,24.0,0.,24.0
1979-08-04 23:36:32.930 ,1,1,1.,24.0,0.,24.0,0.,24.0,0.,24.0
1979-08-04 23:36:56.930 ,2,1,1.,24.0,0.,24.0,0.,24.0,0.,24.0
1979-08-04 23:37:20.930 ,6,1,0.,24.0,0.,24.0,0.,24.0,0.,24.0
1979-08-04 23:37:44.930 ,5,1,11.,24.0,0.,24.0,0.,24.0,0.,24.0
1979-08-04 23:38:08.930 ,1,1,0.,24.0,0.,24.0,0.,24.0,0.,24.0
1979-08-04 23:38:32.930 ,2,1,0.,24.0,1.,24.0,0.,24.0,0.,24.0
1979-08-04 23:38:56.930 ,6,1,0.,24.0,0.,24.0,1.,24.0,0.,24.0
1979-08-04 23:39:20.930 ,5,1,17.,24.0,0.,24.0,2.,24.0,0.,24.0
1979-08-04 23:39:44.930 ,1,1,0.,24.0,0.,24.0,1.,24.0,0.,24.0
1979-08-04 23:40:08.930 ,2,1,1.,24.0,0.,24.0,1.,24.0,0.,24.0
1979-08-04 23:40:32.930 ,6,1,1.,24.0,1.,24.0,0.,24.0,0.,24.0
1979-08-04 23:40:56.930 ,5,1,14.,24.0,0.,24.0,0.,24.0,0.,24.0
1979-08-04 23:41:20.930 ,1,1,0.,24.0,1.,24.0,0.,24.0,0.,24.0
1979-08-04 23:41:44.930 ,0,0,0.,24.0,0.,24.0,1.,24.0,0.,24.0
1979-08-04 23:42:08.930 ,0,0,0.,24.0,0.,24.0,0.,24.0,0.,24.0
1979-08-04 23:42:32.930 ,5,1,17.,24.0,0.,24.0,1.,24.0,0.,24.0
1979-08-04 23:42:56.930 ,5,0,0.,24.0,0.,24.0,1.,24.0,0.,24.0
1979-08-04 23:43:20.930 ,4,1,0.,24.0,0.,24.0,1.,24.0,0.,24.0
1979-08-04 23:43:44.930 ,4,0,0.,24.0,0.,24.0,0.,24.0,0.,24.0
1979-08-04 23:44:08.930 ,3,1,0.,24.0,0.,24.0,0.,24.0,0.,24.0
1979-08-04 23:44:32.930 ,3,0,0.,24.0,0.,24.0,0.,24.0,0.,24.0
1979-08-04 23:44:56.930 ,2,1,0.,24.0,0.,24.0,0.,24.0,0.,24.0
1979-08-04 23:45:20.930 ,2,0,0.,24.0,0.,24.0,0.,24.0,0.,24.0
1979-08-04 23:45:44.930 ,1,1,0.,24.0,0.,24.0,1.,24.0,0.,24.0
1979-08-04 23:46:08.930 ,1,0,1.,24.0,0.,24.0,0.,24.0,0.,24.0
1979-08-04 23:46:32.930 ,0,1,0.,24.0,1.,24.0,0.,24.0,0.,24.0
1979-08-04 23:46:56.930 ,0,0,4.,24.0,1.,24.0,1.,24.0,0.,24.0
1979-08-04 23:47:20.930 ,0,1,1.,24.0,4.,24.0,0.,24.0,0.,24.0
1979-08-04 23:47:44.930 ,0,0,1.,24.0,1.,24.0,0.,24.0,0.,24.0
1979-08-04 23:48:08.930 ,1,1,3.,24.0,0.,24.0,0.,24.0,0.,24.0
1979-08-04 23:48:32.930 ,1,0,1.,24.0,1.,24.0,0.,24.0,0.,24.0
1979-08-04 23:48:56.930 ,2,1,0.,24.0,1.,24.0,0.,24.0,0.,24.0
1979-08-04 23:49:20.930 ,2,0,0.,24.0,0.,24.0,0.,24.0,0.,24.0
1979-08-04 23:49:44.930 ,3,1,0.,24.0,0.,24.0,1.,24.0,0.,24.0
1979-08-04 23:50:08.930 ,3,0,1.,24.0,0.,24.0,0.,24.0,0.,24.0
1979-08-04 23:50:32.930 ,4,1,0.,24.0,0.,24.0,1.,24.0,0.,24.0
1979-08-04 23:50:56.930 ,4,0,0.,24.0,0.,24.0,1.,24.0,0.,24.0
1979-08-04 23:51:20.930 ,5,1,0.,24.0,0.,24.0,1.,24.0,0.,24.0
1979-08-04 23:51:44.930 ,5,0,0.,24.0,0.,24.0,0.,24.0,0.,24.0
1979-08-04 23:52:08.930 ,6,1,0.,24.0,0.,24.0,1.,24.0,0.,24.0
1979-08-04 23:52:32.930 ,6,0,0.,24.0,1.,24.0,0.,24.0,0.,24.0
1979-08-04 23:52:56.930 ,7,1,8.,24.0,0.,24.0,0.,24.0,0.,24.0
1979-08-04 23:53:20.930 ,7,0,31.,24.0,0.,24.0,1.,24.0,0.,24.0
1979-08-04 23:53:44.930 ,7,1,15.,24.0,0.,24.0,0.,24.0,0.,24.0
1979-08-04 23:54:08.930 ,7,0,41.,24.0,0.,24.0,0.,24.0,0.,24.0
1979-08-04 23:54:32.930 ,6,1,28.,24.0,0.,24.0,0.,24.0,0.,24.0
1979-08-04 23:54:56.930 ,6,0,1.,24.0,0.,24.0,1.,24.0,0.,24.0
1979-08-04 23:55:20.930 ,5,1,1.,24.0,0.,24.0,0.,24.0,0.,24.0
1979-08-04 23:55:44.930 ,5,0,1.,24.0,0.,24.0,0.,24.0,0.,24.0
1979-08-04 23:56:08.930 ,4,1,0.,24.0,0.,24.0,0.,24.0,0.,24.0
1979-08-04 23:56:32.930 ,4,0,0.,24.0,0.,24.0,1.,24.0,0.,24.0
1979-08-04 23:56:56.930 ,3,1,0.,24.0,0.,24.0,0.,24.0,0.,24.0
1979-08-04 23:57:20.930 ,3,0,0.,24.0,0.,24.0,0.,24.0,0.,24.0
1979-08-04 23:57:44.930 ,2,1,0.,24.0,0.,24.0,0.,24.0,0.,24.0
1979-08-04 23:58:08.930 ,2,0,0.,24.0,0.,24.0,0.,24.0,0.,24.0
1979-08-04 23:58:32.930 ,1,1,0.,24.0,0.,24.0,0.,24.0,0.,24.0
1979-08-04 23:58:56.930 ,1,0,2.,24.0,0.,24.0,1.,24.0,0.,24.0
1979-08-04 23:59:20.930 ,0,1,2.,24.0,0.,24.0,1.,24.0,0.,24.0
1979-08-04 23:59:44.930 ,0,0,1.,24.0,0.,24.0,0.,24.0,0.,24.0
1979-08-05 00:00:08.930 ,0,1,1.,24.0,2.,24.0,0.,24.0,0.,24.0
